Location: Beverley
(50.2667°N, 107.9667°W)
Time: 08:27:05
(UTC+00:00)

EO-79 - Pass Details

Date: 04 July 2022
Orbit: 588 x 603 km, 98.0° (Epoch: 09 August)

Event Time Altitude Azimuth Distance (km) Brightness Sun altitude
Rises 07:53:29 0° 27° (NNE) 2,859 ? -16.4°
Reaches altitude 10° 07:56:15 10° 47° (NE) 1,953 ? -16.3°
Maximum altitude 07:59:12 18° 91° (E) 1,489 ? -16.3°
Enters shadow 08:01:55 11° 133° (SE) 1,887 ? -16.2°
